Flag for Germany Weather past 2 weeks in Demmin, Mecklenburg-Western Pomerania, Germany

39 °F

Passing clouds.

Feels Like: 31 °F
Forecast: 39 / 50 °F
Wind: 14 mph from West

Location: Laage

Current Time: Dec 1, 2015 at 3:52:22 AM

Latest Report: Dec 1, 2015 at 3:20 AM

Visibility: N/A

Pressure: 29.77 "Hg

Humidity: 100%

Dew point: 39 °F

Location of DemminLocation

Historic Weather in Demmin — Graph


Demmin temperature yesterday

Maximum temperature yesterday: 45 °F (at 12:20 AM)
Minimum temperature yesterday: 37 °F (at 3:20 AM)
Average temperature yesterday: 40 °F

Past Weeks' High & Low Weather Summary

High55 °F (Nov 18, 1:20 AM)100% (Nov 16, 3:20 AM)30.15 "Hg (Nov 16, 3:20 AM)
Low30 °F (Nov 22, 8:20 PM)52% (Nov 23, 1:20 PM)29.30 "Hg (Nov 18, 4:20 AM)
Average42 °F89%29.67 "Hg
* Reported Nov 16 2:00 AM — Dec 1 2:20 AM, Demmin, Weather by CustomWeather, © 2015

Note: Actual official high and low records may vary slightly from our data, if they occured in-between our weather recording intervals... More about our weather records


Demmin weather history for previous 24 hours

Time TempWeatherWind HumidityBarometerVisibility
2:20 AM
Tue, Dec 1
39 °FPassing clouds.13 mph93%29.74 "Hg5 mi
1:20 AM37 °FPassing clouds.10 mph100%29.71 "Hg4 mi
12:20 AM37 °FPassing clouds.7 mph93%29.68 "Hg4 mi
11:20 PM
Mon, Nov 30
37 °FLight rain. Fog.5 mph93%29.65 "Hg3 mi
10:20 PM37 °FLight rain. Partly cloudy.6 mph93%29.65 "HgN/A
9:20 PM37 °FLight rain. Passing clouds.7 mph93%29.65 "HgN/A
8:20 PM37 °FRain. Passing clouds.9 mph93%29.68 "HgN/A
7:20 PM39 °FLight rain. Passing clouds.13 mph81%29.68 "HgN/A
6:20 PM41 °FPassing clouds.13 mph76%29.71 "HgN/A
5:20 PM43 °FPassing clouds.14 mph76%29.74 "HgN/A
4:20 PM43 °FPassing clouds.13 mph76%29.74 "HgN/A
3:20 PM41 °FBroken clouds.13 mph87%29.74 "HgN/A
3:01 PM41 °FSprinkles. Partly sunny.13 mph87%29.74 "HgN/A
2:20 PM41 °FPartly sunny.17 mph81%29.77 "HgN/A
1:20 PM41 °FScattered clouds.21 mph81%29.77 "HgN/A
12:20 PM41 °FScattered clouds.18 mph81%29.77 "HgN/A
11:20 AM41 °FScattered clouds.15 mph76%29.77 "HgN/A
10:20 AM41 °FPassing clouds.17 mph76%29.74 "HgN/A
9:20 AM39 °FPassing clouds.18 mph81%29.71 "HgN/A
8:20 AM39 °FScattered showers. Scattered clouds.22 mph87%29.68 "HgN/A
7:20 AM39 °FPassing clouds.21 mph81%29.68 "HgN/A
6:20 AM39 °FPassing clouds.17 mph75%29.62 "HgN/A
5:20 AM41 °FPassing clouds.20 mph76%29.59 "HgN/A
4:20 AM41 °FPassing clouds.22 mph81%29.56 "HgN/A
3:20 AM37 °FSprinkles. Partly cloudy.30 mph93%29.50 "Hg4 mi
Weather by CustomWeather, © 2015

See weather overviewHow to use our weather pages